DELTA 1 DEB, 2223

Orbit data source: Space-Track

DELTA 1 DEB, 2223 is space debris in SSO originally from a launch on Mon, 28 Feb 1966 UTC launched from the Air Force Eastern Test Range (AFETR). Debris objects in space refer to the collection of defunct objects orbiting the Earth. Examples of debris include non-operational satellites, rocket bodies, and fragments generated from explosions, collisions, or faulty payload assembly.

Loading next visibility...
Identifier
2223, 1966-016C
Orbit
SSO
Country
Flag of USUS
Related business
Manufacturer
Unknown
Mission
Spacecraft
Bus & Motor
Unknown
Mass
1 kg wet, 1 kg dry
Launch date (UTC)
1966-02-28 (60 years ago)
Launch vehicle
Unknown
Launch site
Air Force Eastern Test Range (AFETR)
Object type
Payload
Rocket body
Debris
Shape & HBR
Unknown
Radar Cross Section
Small (<0.1 m²)

Expand to show TLE details & history
Last TLE update: 1 day ago

TLE from 1 day ago
0 DELTA 1 DEB
1 02223U 66016C   26035.05971248 -.00000024  00000-0  72565-4 0  9996
2 02223 100.7465  68.3026 0094095 137.7005 250.5159 12.87767490809824
Epoch: 2026-02-04T01:25Z
TLE epoch observation values (Epoch: 2026-02-04T01:25:59.158Z)
Latitude
26.7245°
Longitude
-92.88164°
Altitude
1,338.174 km
Speed
7.179 km/s
True Right ascension
04h 11m 23s
True Declination
26° 35' 49"
Sunlit
Object was in daylight at epoch
Visualization orbit readout
Latitude
Unknown
Longitude
Unknown
Altitude
Unknown
Speed
Unknown
Apparent Right ascension
Unknown
Apparent Declination
Unknown
Sunlit
N/A
Visualization observer readout
Local Sidereal Time
03:02:32
Azimuth
Unknown
Elevation
Unknown
Doppler factor
Unknown
Orbital elements
Apogee altitude
1,380.158 km
Perigee altitude
1,235.515 km
Semi-major axis
7,685.974 km
Eccentricity
0.00941
Inclination
100.7465°
RAAN
68.3026°
Arg. of periapsis
137.7005°
True anomaly
249.50342°
Mean anomaly
250.5159°
Eccentric anomaly
250.00926°
Mean motion
3.22103 °/min
Orbital period
111.77 mins
BSTAR
0.000072565
Loading maneuver chart data...
Computing Atmospheric mass density...
Loading historical data...
Loading historical data...
Loading historical data...
Loading historical data...
Loading historical data...
Loading historical data...
Loading historical data...
Other satellites on launch #16 in the year 1966 (1966-02-28 UTC)

Documentation

Showing up to 5 results
|